Three Rivers, MI

4:09 PM EDT on March 29, 2017 (GMT -0400)
Three Rivers Municipal-Haines

Weather History for KHAI - December, 2007

Change the Weather History Date:

Tuesday, December 18, 2007

  Actual Average Record
Temperature  
Mean Temperature 27 °F -  
Max Temperature 35 °F 33 °F 50 °F (1957)
Min Temperature 19 °F 20 °F -7 °F (1989)
Degree Days  
Heating Degree Days 38    
Moisture  
Dew Point 24 °F    
Average Humidity 86    
Maximum Humidity 100    
Minimum Humidity 75    
Precipitation  
Precipitation 0.00 in - - ()
Sea Level Pressure  
Sea Level Pressure 30.07 in    
Wind  
Wind Speed 10 mph (South)    
Max Wind Speed 14 mph    
Max Gust Speed 17 mph    
Visibility 7 miles    
Events      
Averages and records for this station are not official NWS values.
T = Trace of Precipitation, MM = Missing Value Source: NWS Daily Summary

Daily Weather History Graph

Daily Weather History Graph

Search for Another Location

Airport or City:

Trip Planner

Search our weather history database for the weather conditions in past years. The results will help you decide how hot, cold, wet, or windy it might be!

Date:

Astronomy

Dec. 18, 2007 Rise Set
Actual Time 8:05 AM EST 5:12 PM EST
Civil Twilight 7:33 AM EST 5:44 PM EST
Nautical Twilight 6:58 AM EST 6:19 PM EST
Astronomical Twilight 6:24 AM EST 6:53 PM EST
Moon 1:08 PM EST (12/18) 1:35 AM EST (12/18)
Length of Visible Light 10h 11m
Length of Day
9h 07m
Waxing Gibbous, 64% of the Moon is Illuminated
Dec 18
Waxing Gibbous
Dec 23
Full
Dec 31
Last Quarter
Jan 8
New
Jan 15
First Quarter

Hourly Weather History & Observations

Time (EST) Temp. Windchill Dew Point Humidity Pressure Visibility Wind Dir Wind Speed Gust Speed Precip Events Conditions
12:17 AM 21.2 °F 8.9 °F 19.4 °F 93% 30.19 in 5.0 mi SSW 12.7 mph - N/A   Overcast
12:37 AM 21.2 °F 10.1 °F 19.4 °F 93% 30.19 in 7.0 mi SSW 10.4 mph - N/A   Overcast
12:55 AM 21.2 °F 10.1 °F 19.4 °F 93% 30.19 in 5.0 mi SSW 10.4 mph - N/A   Overcast
1:17 AM 21.2 °F 10.1 °F 19.4 °F 93% 30.19 in 5.0 mi SSW 10.4 mph - N/A   Overcast
1:37 AM 21.2 °F 10.1 °F 19.4 °F 93% 30.19 in 5.0 mi SSW 10.4 mph - N/A   Overcast
1:55 AM 21.2 °F 11.7 °F 19.4 °F 93% 30.19 in 5.0 mi SSW 8.1 mph - N/A   Overcast
2:16 AM 21.2 °F 9.5 °F 19.4 °F 93% 30.18 in 5.0 mi SSW 11.5 mph - N/A   Overcast
2:37 AM 19.4 °F 9.5 °F 19.4 °F 100% 30.19 in 5.0 mi South 8.1 mph - N/A   Overcast
2:55 AM 19.4 °F 9.5 °F 19.4 °F 100% 30.18 in 4.0 mi South 8.1 mph - N/A   Overcast
3:16 AM 21.2 °F 10.1 °F 19.4 °F 93% 30.18 in 4.0 mi SSW 10.4 mph - N/A   Overcast
3:37 AM 21.2 °F 9.5 °F 19.4 °F 93% 30.18 in 3.0 mi SSW 11.5 mph - N/A   Overcast
4:17 AM 21.2 °F 11.7 °F 21.2 °F 100% 30.17 in 2.5 mi SSW 8.1 mph - N/A   Overcast
4:37 AM 23.0 °F 12.4 °F 21.2 °F 93% 30.17 in 2.0 mi SSW 10.4 mph - N/A   Overcast
4:55 AM 23.0 °F 12.4 °F 23.0 °F 100% 30.17 in 2.5 mi SSW 10.4 mph - N/A   Overcast
5:16 AM 23.0 °F 13.9 °F 23.0 °F 100% 30.16 in 2.5 mi SSW 8.1 mph - N/A   Overcast
5:36 AM 23.0 °F 13.9 °F 23.0 °F 100% 30.16 in 3.0 mi SSW 8.1 mph - N/A   Overcast
5:55 AM 23.0 °F 14.7 °F 23.0 °F 100% 30.16 in 3.0 mi SSW 6.9 mph - N/A   Overcast
6:17 AM 21.2 °F 13.6 °F 21.2 °F 100% 30.16 in 4.0 mi South 5.8 mph - N/A   Scattered Clouds
6:37 AM 21.2 °F 14.9 °F 21.2 °F 100% 30.15 in 4.0 mi South 4.6 mph - N/A   Clear
7:17 AM 21.2 °F 13.6 °F 19.4 °F 93% 30.15 in 4.0 mi South 5.8 mph - N/A   Clear
7:37 AM 21.2 °F 14.9 °F 19.4 °F 93% 30.15 in 4.0 mi South 4.6 mph - N/A   Clear
7:55 AM 21.2 °F 14.9 °F 21.2 °F 100% 30.15 in 4.0 mi South 4.6 mph - N/A   Clear
8:16 AM 21.2 °F 12.6 °F 21.2 °F 100% 30.14 in 3.0 mi South 6.9 mph - N/A   Clear
8:36 AM 21.2 °F 12.6 °F 21.2 °F 100% 30.14 in 3.0 mi South 6.9 mph - N/A   Clear
8:55 AM 21.2 °F 13.6 °F 21.2 °F 100% 30.13 in 3.0 mi South 5.8 mph - N/A   Clear
9:17 AM 23.0 °F 14.7 °F 21.2 °F 93% 30.14 in 3.0 mi South 6.9 mph - N/A   Clear
9:37 AM 23.0 °F 14.7 °F 21.2 °F 93% 30.13 in 4.0 mi South 6.9 mph - N/A   Clear
9:58 AM 24.8 °F 16.1 °F 23.0 °F 93% 30.13 in 4.0 mi South 8.1 mph - N/A   Clear
10:17 AM 26.6 °F 18.2 °F 23.0 °F 86% 30.13 in 5.0 mi South 8.1 mph - N/A   Clear
10:36 AM 26.6 °F 17.5 °F 23.0 °F 86% 30.13 in 5.0 mi South 9.2 mph - N/A   Clear
10:55 AM 28.4 °F 19.1 °F 23.0 °F 80% 30.12 in 5.0 mi South 10.4 mph - N/A   Clear
11:17 AM 28.4 °F 20.4 °F 23.0 °F 80% 30.11 in 7.0 mi South 8.1 mph - N/A   Clear
11:37 AM 30.2 °F 21.3 °F 24.8 °F 80% 30.10 in 7.0 mi South 10.4 mph - N/A   Clear
11:55 AM 30.2 °F 21.9 °F 24.8 °F 80% 30.09 in 7.0 mi South 9.2 mph - N/A   Clear
12:17 PM 32.0 °F 22.5 °F 26.6 °F 80% 30.07 in 7.0 mi South 12.7 mph - N/A   Clear
12:36 PM 32.0 °F 23.0 °F 26.6 °F 80% 30.06 in 7.0 mi South 11.5 mph - N/A   Clear
12:55 PM 32.0 °F 22.1 °F 26.6 °F 80% 30.04 in 10.0 mi South 13.8 mph - N/A   Clear
1:16 PM 33.8 °F 24.3 °F 26.6 °F 75% 30.03 in 10.0 mi South 13.8 mph - N/A   Clear
1:37 PM 33.8 °F 24.8 °F 26.6 °F 75% 30.01 in 10.0 mi South 12.7 mph - N/A   Clear
1:55 PM 33.8 °F 24.3 °F 28.4 °F 81% 30.00 in 10.0 mi South 13.8 mph 17.3 mph N/A   Clear
2:17 PM 35.6 °F 27.1 °F 28.4 °F 75% 29.98 in 10.0 mi South 12.7 mph - N/A   Clear
2:37 PM 35.6 °F 27.5 °F 28.4 °F 75% 29.97 in 10.0 mi South 11.5 mph - N/A   Clear
2:55 PM 35.6 °F 27.5 °F 28.4 °F 75% 29.96 in 10.0 mi South 11.5 mph - N/A   Clear
3:16 PM 35.6 °F 28.0 °F 28.4 °F 75% 29.96 in 10.0 mi South 10.4 mph - N/A   Clear
3:36 PM 35.6 °F 28.6 °F 28.4 °F 75% 29.96 in 10.0 mi SSW 9.2 mph - N/A   Clear
3:55 PM 33.8 °F 26.4 °F 26.6 °F 75% 29.96 in 10.0 mi South 9.2 mph - N/A   Clear
4:16 PM 33.8 °F 27.0 °F 26.6 °F 75% 29.97 in 10.0 mi SSW 8.1 mph - N/A   Clear
4:36 PM 33.8 °F 26.4 °F 26.6 °F 75% 29.96 in 10.0 mi South 9.2 mph - N/A   Clear
4:55 PM 33.8 °F 25.8 °F 26.6 °F 75% 29.95 in 10.0 mi South 10.4 mph - N/A   Clear
5:17 PM 33.8 °F 25.8 °F 26.6 °F 75% 29.95 in 10.0 mi South 10.4 mph - N/A   Clear
5:36 PM 33.8 °F 25.8 °F 26.6 °F 75% 29.95 in 10.0 mi South 10.4 mph - N/A   Clear
5:55 PM 33.8 °F 26.4 °F 26.6 °F 75% 29.95 in 10.0 mi South 9.2 mph - N/A   Clear
6:17 PM 32.0 °F 23.6 °F 26.6 °F 80% 29.95 in 10.0 mi South 10.4 mph - N/A   Clear
6:36 PM 32.0 °F 23.6 °F 26.6 °F 80% 29.95 in 10.0 mi South 10.4 mph - N/A   Clear
6:55 PM 32.0 °F 24.2 °F 26.6 °F 80% 29.94 in 10.0 mi South 9.2 mph - N/A   Clear
7:16 PM 32.0 °F 24.8 °F 26.6 °F 80% 29.94 in 10.0 mi South 8.1 mph - N/A   Clear
7:36 PM 32.0 °F 24.8 °F 26.6 °F 80% 29.94 in 10.0 mi South 8.1 mph - N/A   Clear
7:55 PM 32.0 °F 25.6 °F 26.6 °F 80% 29.94 in 10.0 mi South 6.9 mph - N/A   Clear
8:17 PM 32.0 °F 26.4 °F 26.6 °F 80% 29.93 in 10.0 mi South 5.8 mph - N/A   Clear
8:37 PM 32.0 °F 25.6 °F 26.6 °F 80% 29.93 in 10.0 mi SSW 6.9 mph - N/A   Clear
8:55 PM 32.0 °F 23.6 °F 26.6 °F 80% 29.93 in 10.0 mi SSW 10.4 mph - N/A   Clear
9:17 PM 32.0 °F 23.0 °F 26.6 °F 80% 29.92 in 10.0 mi SSW 11.5 mph - N/A   Clear
9:37 PM 32.0 °F 23.6 °F 26.6 °F 80% 29.92 in 10.0 mi SSW 10.4 mph - N/A   Clear
9:55 PM 32.0 °F 24.8 °F 26.6 °F 80% 29.92 in 10.0 mi SSW 8.1 mph - N/A   Clear
10:16 PM 32.0 °F 25.6 °F 26.6 °F 80% 29.92 in 10.0 mi SSW 6.9 mph - N/A   Scattered Clouds
10:36 PM 32.0 °F 24.8 °F 28.4 °F 87% 29.92 in 10.0 mi SSW 8.1 mph - N/A   Overcast
10:55 PM 33.8 °F 25.8 °F 28.4 °F 81% 29.91 in 10.0 mi SW 10.4 mph - N/A   Overcast
11:17 PM 33.8 °F 26.4 °F 28.4 °F 81% 29.91 in 10.0 mi SW 9.2 mph - N/A   Overcast
11:37 PM 33.8 °F 25.3 °F 28.4 °F 81% 29.91 in 10.0 mi SW 11.5 mph - N/A   Mostly Cloudy
11:55 PM 33.8 °F 25.8 °F 28.4 °F 81% 29.90 in 10.0 mi SW 10.4 mph 16.1 mph N/A   Mostly Cloudy